Year,Month,Day,Hour,Minute,Value (Times are PST for temperature in C)
2013,04,01,00,00,10.20
2013,04,01,00,01,10.20
2013,04,01,00,02,10.20
2013,04,01,00,03,10.20
2013,04,01,00,04,10.10
2013,04,01,00,05,10.10
2013,04,01,00,06,10.10
2013,04,01,00,07,10.10
2013,04,01,00,08,10.10
2013,04,01,00,09,10.00
2013,04,01,00,10,10.00
2013,04,01,00,11,10.00
2013,04,01,00,12,9.90
2013,04,01,00,13,9.90
2013,04,01,00,14,9.90
2013,04,01,00,15,9.90
2013,04,01,00,16,9.90
2013,04,01,00,17,9.90
2013,04,01,00,18,9.90
2013,04,01,00,19,10.00
2013,04,01,00,20,10.00
2013,04,01,00,21,10.00
2013,04,01,00,22,10.10
2013,04,01,00,23,10.10
2013,04,01,00,24,10.10
2013,04,01,00,25,10.10
2013,04,01,00,26,10.10
2013,04,01,00,27,10.10
2013,04,01,00,28,10.10
2013,04,01,00,29,10.10
2013,04,01,00,30,10.10
2013,04,01,00,31,10.10
2013,04,01,00,32,10.10
2013,04,01,00,33,10.10
2013,04,01,00,34,10.10
2013,04,01,00,35,10.10
2013,04,01,00,36,10.10
2013,04,01,00,37,10.20
2013,04,01,00,38,10.20
2013,04,01,00,39,10.20
2013,04,01,00,40,10.30
2013,04,01,00,41,10.30
2013,04,01,00,42,10.30
2013,04,01,00,43,10.30
2013,04,01,00,44,10.30
2013,04,01,00,45,10.30
2013,04,01,00,46,10.30
2013,04,01,00,47,10.30
2013,04,01,00,48,10.30
2013,04,01,00,49,10.30
2013,04,01,00,50,10.30
2013,04,01,00,51,10.30
2013,04,01,00,52,10.30
2013,04,01,00,53,10.30
2013,04,01,00,54,10.30
2013,04,01,00,55,10.30
2013,04,01,00,56,10.30
2013,04,01,00,57,10.30
2013,04,01,00,58,10.30
2013,04,01,00,59,10.30
2013,04,01,01,00,10.30
2013,04,01,01,01,10.30
2013,04,01,01,02,10.30
2013,04,01,01,03,10.30
2013,04,01,01,04,10.30
2013,04,01,01,05,10.30
2013,04,01,01,06,10.30
2013,04,01,01,07,10.30
2013,04,01,01,08,10.30
2013,04,01,01,09,10.30
2013,04,01,01,10,10.30
2013,04,01,01,11,10.30
2013,04,01,01,12,10.30
2013,04,01,01,13,10.30
2013,04,01,01,14,10.30
2013,04,01,01,15,10.30
2013,04,01,01,16,10.30
2013,04,01,01,17,10.30
2013,04,01,01,18,10.40
2013,04,01,01,19,10.40
2013,04,01,01,20,10.40
2013,04,01,01,21,10.40
2013,04,01,01,22,10.50
2013,04,01,01,23,10.50
2013,04,01,01,24,10.50
2013,04,01,01,25,10.50
2013,04,01,01,26,10.50
2013,04,01,01,27,10.50
2013,04,01,01,28,10.50
2013,04,01,01,29,10.50
2013,04,01,01,30,10.50
2013,04,01,01,31,10.40
2013,04,01,01,32,10.40
2013,04,01,01,33,10.40
2013,04,01,01,34,10.40
2013,04,01,01,35,10.40
2013,04,01,01,36,10.40
2013,04,01,01,37,10.40
2013,04,01,01,38,10.50
2013,04,01,01,39,10.60
2013,04,01,01,40,10.60
2013,04,01,01,41,10.60
2013,04,01,01,42,10.70
2013,04,01,01,43,10.70
2013,04,01,01,44,10.70
2013,04,01,01,45,10.70
2013,04,01,01,46,10.70
2013,04,01,01,47,10.70
2013,04,01,01,48,10.70
2013,04,01,01,49,10.70
2013,04,01,01,50,10.80
2013,04,01,01,51,10.80
2013,04,01,01,52,10.80
2013,04,01,01,53,10.80
2013,04,01,01,54,10.80
2013,04,01,01,55,10.80
2013,04,01,01,56,10.80
2013,04,01,01,57,10.80
2013,04,01,01,58,10.80
2013,04,01,01,59,10.80
2013,04,01,02,00,10.80
2013,04,01,02,01,10.80
2013,04,01,02,02,10.80
2013,04,01,02,03,10.80
2013,04,01,02,04,10.80
2013,04,01,02,05,10.70
2013,04,01,02,06,10.70
2013,04,01,02,07,10.70
2013,04,01,02,08,10.60
2013,04,01,02,09,10.50
2013,04,01,02,10,10.50
2013,04,01,02,11,10.40
2013,04,01,02,12,10.40
2013,04,01,02,13,10.30
2013,04,01,02,14,10.30
2013,04,01,02,15,10.30
2013,04,01,02,16,10.20
2013,04,01,02,17,10.20
2013,04,01,02,18,10.20
2013,04,01,02,19,10.20
2013,04,01,02,20,10.10
2013,04,01,02,21,10.10
2013,04,01,02,22,10.10
2013,04,01,02,23,10.10
2013,04,01,02,24,10.10
2013,04,01,02,25,10.00
2013,04,01,02,26,10.00
2013,04,01,02,27,10.00
2013,04,01,02,28,10.00
2013,04,01,02,29,10.00
2013,04,01,02,30,10.00
2013,04,01,02,31,10.00
2013,04,01,02,32,10.10
2013,04,01,02,33,10.10
2013,04,01,02,34,10.10
2013,04,01,02,35,10.00
2013,04,01,02,36,10.00
2013,04,01,02,37,10.00
2013,04,01,02,38,10.00
2013,04,01,02,39,10.00
2013,04,01,02,40,10.00
2013,04,01,02,41,10.00
2013,04,01,02,42,10.10
2013,04,01,02,43,10.10
2013,04,01,02,44,10.10
2013,04,01,02,45,10.10
2013,04,01,02,46,10.10
2013,04,01,02,47,10.20
2013,04,01,02,48,10.20
2013,04,01,02,49,10.20
2013,04,01,02,50,10.20
2013,04,01,02,51,10.20
2013,04,01,02,52,10.20
2013,04,01,02,53,10.10
2013,04,01,02,54,10.10
2013,04,01,02,55,10.00
2013,04,01,02,56,10.00
2013,04,01,02,57,9.90
2013,04,01,02,58,9.80
2013,04,01,02,59,9.70
2013,04,01,03,00,9.60
2013,04,01,03,01,9.50
2013,04,01,03,02,9.40
2013,04,01,03,03,9.30
2013,04,01,03,04,9.20
2013,04,01,03,05,9.10
2013,04,01,03,06,9.00
2013,04,01,03,07,8.90
2013,04,01,03,08,8.80
2013,04,01,03,09,8.80
2013,04,01,03,10,8.70
2013,04,01,03,11,8.70
2013,04,01,03,12,8.60
2013,04,01,03,13,8.60
2013,04,01,03,14,8.50
2013,04,01,03,15,8.40
2013,04,01,03,16,8.40
2013,04,01,03,17,8.40
2013,04,01,03,18,8.30
2013,04,01,03,19,8.30
2013,04,01,03,20,8.20
2013,04,01,03,21,8.20
2013,04,01,03,22,8.20
2013,04,01,03,23,8.10
2013,04,01,03,24,8.10
2013,04,01,03,25,8.10
2013,04,01,03,26,8.10
2013,04,01,03,27,8.10
2013,04,01,03,28,8.10
2013,04,01,03,29,8.10
2013,04,01,03,30,8.20
2013,04,01,03,31,8.20
2013,04,01,03,32,8.20
2013,04,01,03,33,8.20
2013,04,01,03,34,8.20
2013,04,01,03,35,8.20
2013,04,01,03,36,8.30
2013,04,01,03,37,8.30
2013,04,01,03,38,8.30
2013,04,01,03,39,8.30
2013,04,01,03,40,8.40
2013,04,01,03,41,8.40
2013,04,01,03,42,8.40
2013,04,01,03,43,8.50
2013,04,01,03,44,8.50
2013,04,01,03,45,8.60
2013,04,01,03,46,8.60
2013,04,01,03,47,8.60
2013,04,01,03,48,8.70
2013,04,01,03,49,8.70
2013,04,01,03,50,8.70
2013,04,01,03,51,8.70
2013,04,01,03,52,8.70
2013,04,01,03,53,8.70
2013,04,01,03,54,8.70
2013,04,01,03,55,8.70
2013,04,01,03,56,8.70
2013,04,01,03,57,8.70
2013,04,01,03,58,8.60
2013,04,01,03,59,8.60
2013,04,01,04,00,8.60
2013,04,01,04,01,8.60
2013,04,01,04,02,8.60
2013,04,01,04,03,8.60
2013,04,01,04,04,8.60
2013,04,01,04,05,8.60
2013,04,01,04,06,8.60
2013,04,01,04,07,8.60
2013,04,01,04,08,8.60
2013,04,01,04,09,8.50
2013,04,01,04,10,8.50
2013,04,01,04,11,8.50
2013,04,01,04,12,8.40
2013,04,01,04,13,8.40
2013,04,01,04,14,8.40
2013,04,01,04,15,8.40
2013,04,01,04,16,8.40
2013,04,01,04,17,8.40
2013,04,01,04,18,8.40
2013,04,01,04,19,8.40
2013,04,01,04,20,8.50
2013,04,01,04,21,8.50
2013,04,01,04,22,8.50
2013,04,01,04,23,8.60
2013,04,01,04,24,8.60
2013,04,01,04,25,8.60
2013,04,01,04,26,8.60
2013,04,01,04,27,8.60
2013,04,01,04,28,8.60
2013,04,01,04,29,8.60
2013,04,01,04,30,8.60
2013,04,01,04,31,8.60
2013,04,01,04,32,8.60
2013,04,01,04,33,8.60
2013,04,01,04,34,8.60
2013,04,01,04,35,8.60
2013,04,01,04,36,8.60
2013,04,01,04,37,8.60
2013,04,01,04,38,8.60
2013,04,01,04,39,8.60
2013,04,01,04,40,8.60
2013,04,01,04,41,8.60
2013,04,01,04,42,8.50
2013,04,01,04,43,8.50
2013,04,01,04,44,8.60
2013,04,01,04,45,8.60
2013,04,01,04,46,8.60
2013,04,01,04,47,8.60
2013,04,01,04,48,8.60
2013,04,01,04,49,8.60
2013,04,01,04,50,8.60
2013,04,01,04,51,8.60
2013,04,01,04,52,8.60
2013,04,01,04,53,8.50
2013,04,01,04,54,8.50
2013,04,01,04,55,8.40
2013,04,01,04,56,8.40
2013,04,01,04,57,8.30
2013,04,01,04,58,8.30
2013,04,01,04,59,8.20
2013,04,01,05,00,8.20
2013,04,01,05,01,8.20
2013,04,01,05,02,8.10
2013,04,01,05,03,8.10
2013,04,01,05,04,8.10
2013,04,01,05,05,8.00
2013,04,01,05,06,8.00
2013,04,01,05,07,8.00
2013,04,01,05,08,7.90
2013,04,01,05,09,7.90
2013,04,01,05,10,7.90
2013,04,01,05,11,7.90
2013,04,01,05,12,7.80
2013,04,01,05,13,7.80
2013,04,01,05,14,7.80
2013,04,01,05,15,7.70
2013,04,01,05,16,7.70
2013,04,01,05,17,7.70
2013,04,01,05,18,7.70
2013,04,01,05,19,7.70
2013,04,01,05,20,7.70
2013,04,01,05,21,7.70
2013,04,01,05,22,7.70
2013,04,01,05,23,7.80
2013,04,01,05,24,7.80
2013,04,01,05,25,7.80
2013,04,01,05,26,7.80
2013,04,01,05,27,7.80
2013,04,01,05,28,7.80
2013,04,01,05,29,7.80
2013,04,01,05,30,7.80
2013,04,01,05,31,7.80
2013,04,01,05,32,7.80
2013,04,01,05,33,7.70
2013,04,01,05,34,7.70
2013,04,01,05,35,7.70
2013,04,01,05,36,7.70
2013,04,01,05,37,7.60
2013,04,01,05,38,7.60
2013,04,01,05,39,7.60
2013,04,01,05,40,7.50
2013,04,01,05,41,7.50
2013,04,01,05,42,7.40
2013,04,01,05,43,7.40
2013,04,01,05,44,7.30
2013,04,01,05,45,7.20
2013,04,01,05,46,7.20
2013,04,01,05,47,7.20
2013,04,01,05,48,7.20
2013,04,01,05,49,7.20
2013,04,01,05,50,7.20
2013,04,01,05,51,7.20
2013,04,01,05,52,7.10
2013,04,01,05,53,7.10
2013,04,01,05,54,7.10
2013,04,01,05,55,7.10
2013,04,01,05,56,7.20
2013,04,01,05,57,7.20
2013,04,01,05,58,7.20
2013,04,01,05,59,7.20
2013,04,01,06,00,7.20
2013,04,01,06,01,7.20
2013,04,01,06,02,7.20
2013,04,01,06,03,7.20
2013,04,01,06,04,7.20
2013,04,01,06,05,7.20
2013,04,01,06,06,7.20
2013,04,01,06,07,7.20
2013,04,01,06,08,7.20
2013,04,01,06,09,7.20
2013,04,01,06,10,7.20
2013,04,01,06,11,7.20
2013,04,01,06,12,7.20
2013,04,01,06,13,7.20
2013,04,01,06,14,7.10
2013,04,01,06,15,7.10
2013,04,01,06,16,7.10
2013,04,01,06,17,7.10
2013,04,01,06,18,7.10
2013,04,01,06,19,7.00
2013,04,01,06,20,7.00
2013,04,01,06,21,7.00
2013,04,01,06,22,7.00
2013,04,01,06,23,6.90
2013,04,01,06,24,6.90
2013,04,01,06,25,6.90
2013,04,01,06,26,6.80
2013,04,01,06,27,6.80
2013,04,01,06,28,6.80
2013,04,01,06,29,6.80
2013,04,01,06,30,6.80
2013,04,01,06,31,6.80
2013,04,01,06,32,6.80
2013,04,01,06,33,6.80
2013,04,01,06,34,6.80
2013,04,01,06,35,6.80
2013,04,01,06,36,6.80
2013,04,01,06,37,6.80
2013,04,01,06,38,6.70
2013,04,01,06,39,6.70
2013,04,01,06,40,6.70
2013,04,01,06,41,6.70
2013,04,01,06,42,6.70
2013,04,01,06,43,6.70
2013,04,01,06,44,6.60
2013,04,01,06,45,6.60
2013,04,01,06,46,6.60
2013,04,01,06,47,6.70
2013,04,01,06,48,6.70
2013,04,01,06,49,6.80
2013,04,01,06,50,6.80
2013,04,01,06,51,6.90
2013,04,01,06,52,6.90
2013,04,01,06,53,7.00
2013,04,01,06,54,7.00
2013,04,01,06,55,7.10
2013,04,01,06,56,7.10
2013,04,01,06,57,7.10
2013,04,01,06,58,7.20
2013,04,01,06,59,7.20
2013,04,01,07,00,7.20
2013,04,01,07,01,7.10
2013,04,01,07,02,7.10
2013,04,01,07,03,7.00
2013,04,01,07,04,7.00
2013,04,01,07,05,6.90
2013,04,01,07,06,6.90
2013,04,01,07,07,6.90
2013,04,01,07,08,6.90
2013,04,01,07,09,6.90
2013,04,01,07,10,6.90
2013,04,01,07,11,6.90
2013,04,01,07,12,6.90
2013,04,01,07,13,6.90
2013,04,01,07,14,6.90
2013,04,01,07,15,6.90
2013,04,01,07,16,6.90
2013,04,01,07,17,6.90
2013,04,01,07,18,6.90
2013,04,01,07,19,6.90
2013,04,01,07,20,6.90
2013,04,01,07,21,6.90
2013,04,01,07,22,6.90
2013,04,01,07,23,6.90
2013,04,01,07,24,6.90
2013,04,01,07,25,6.90
2013,04,01,07,26,6.90
2013,04,01,07,27,6.90
2013,04,01,07,28,6.90
2013,04,01,07,29,6.90
2013,04,01,07,30,6.90
2013,04,01,07,31,7.00
2013,04,01,07,32,7.00
2013,04,01,07,33,7.00
2013,04,01,07,34,7.00
2013,04,01,07,35,7.00
2013,04,01,07,36,7.00
2013,04,01,07,37,7.10
2013,04,01,07,38,7.10
2013,04,01,07,39,7.10
2013,04,01,07,40,7.10
2013,04,01,07,41,7.10
2013,04,01,07,42,7.20
2013,04,01,07,43,7.20
2013,04,01,07,44,7.20
2013,04,01,07,45,7.20
2013,04,01,07,46,7.20
2013,04,01,07,47,7.20
2013,04,01,07,48,7.20
2013,04,01,07,49,7.30
2013,04,01,07,50,7.30
2013,04,01,07,51,7.40
2013,04,01,07,52,7.50
2013,04,01,07,53,7.50
2013,04,01,07,54,7.60
2013,04,01,07,55,7.60
2013,04,01,07,56,7.60
2013,04,01,07,57,7.60
2013,04,01,07,58,7.60
2013,04,01,07,59,7.70
2013,04,01,08,00,7.70
2013,04,01,08,01,7.70
2013,04,01,08,02,7.80
2013,04,01,08,03,7.80
2013,04,01,08,04,7.90
2013,04,01,08,05,7.90
2013,04,01,08,06,8.00
2013,04,01,08,07,8.10
2013,04,01,08,08,8.10
2013,04,01,08,09,8.20
2013,04,01,08,10,8.30
2013,04,01,08,11,8.40
2013,04,01,08,12,8.50
2013,04,01,08,13,8.60
2013,04,01,08,14,8.60
2013,04,01,08,15,8.70
2013,04,01,08,16,8.70
2013,04,01,08,17,8.80
2013,04,01,08,18,8.80
2013,04,01,08,19,8.90
2013,04,01,08,20,9.00
2013,04,01,08,21,9.00
2013,04,01,08,22,9.10
2013,04,01,08,23,9.10
2013,04,01,08,24,9.20
2013,04,01,08,25,9.20
2013,04,01,08,26,9.30
2013,04,01,08,27,9.30
2013,04,01,08,28,9.40
2013,04,01,08,29,9.40
2013,04,01,08,30,9.40
2013,04,01,08,31,9.50
2013,04,01,08,32,9.50
2013,04,01,08,33,9.60
2013,04,01,08,34,9.60
2013,04,01,08,35,9.60
2013,04,01,08,36,9.70
2013,04,01,08,37,9.70
2013,04,01,08,38,9.80
2013,04,01,08,39,9.80
2013,04,01,08,40,9.80
2013,04,01,08,41,9.90
2013,04,01,08,42,9.90
2013,04,01,08,43,9.90
2013,04,01,08,44,10.00
2013,04,01,08,45,10.10
2013,04,01,08,46,10.10
2013,04,01,08,47,10.20
2013,04,01,08,48,10.20
2013,04,01,08,49,10.30
2013,04,01,08,50,10.30
2013,04,01,08,51,10.30
2013,04,01,08,52,10.40
2013,04,01,08,53,10.40
2013,04,01,08,54,10.50
2013,04,01,08,55,10.60
2013,04,01,08,56,10.70
2013,04,01,08,57,10.70
2013,04,01,08,58,10.80
2013,04,01,08,59,10.90
2013,04,01,09,00,10.90
2013,04,01,09,01,10.90
2013,04,01,09,02,11.00
2013,04,01,09,03,11.00
2013,04,01,09,04,11.10
2013,04,01,09,05,11.20
2013,04,01,09,06,11.20
2013,04,01,09,07,11.30
2013,04,01,09,08,11.40
2013,04,01,09,09,11.50
2013,04,01,09,10,11.60
2013,04,01,09,11,11.60
2013,04,01,09,12,11.70
2013,04,01,09,13,11.80
2013,04,01,09,14,11.80
2013,04,01,09,15,11.90
2013,04,01,09,16,11.90
2013,04,01,09,17,11.90
2013,04,01,09,18,12.00
2013,04,01,09,19,12.00
2013,04,01,09,20,12.10
2013,04,01,09,21,12.20
2013,04,01,09,22,12.30
2013,04,01,09,23,12.30
2013,04,01,09,24,12.40
2013,04,01,09,25,12.40
2013,04,01,09,26,12.40
2013,04,01,09,27,12.40
2013,04,01,09,28,12.50
2013,04,01,09,29,12.50
2013,04,01,09,30,12.60
2013,04,01,09,31,12.60
2013,04,01,09,32,12.70
2013,04,01,09,33,12.60
2013,04,01,09,34,12.60
2013,04,01,09,35,12.60
2013,04,01,09,36,12.60
2013,04,01,09,37,12.60
2013,04,01,09,38,12.60
2013,04,01,09,39,12.50
2013,04,01,09,40,12.40
2013,04,01,09,41,12.30
2013,04,01,09,42,12.30
2013,04,01,09,43,12.30
2013,04,01,09,44,12.30
2013,04,01,09,45,12.30
2013,04,01,09,46,12.30
2013,04,01,09,47,12.40
2013,04,01,09,48,12.40
2013,04,01,09,49,12.50
2013,04,01,09,50,12.50
2013,04,01,09,51,12.60
2013,04,01,09,52,12.60
2013,04,01,09,53,12.60
2013,04,01,09,54,12.60
2013,04,01,09,55,12.60
2013,04,01,09,56,12.60
2013,04,01,09,57,12.60
2013,04,01,09,58,12.50
2013,04,01,09,59,12.50
2013,04,01,10,00,12.40
2013,04,01,10,01,12.40
2013,04,01,10,02,12.40
2013,04,01,10,03,12.30
2013,04,01,10,04,12.30
2013,04,01,10,05,12.30
2013,04,01,10,06,12.30
2013,04,01,10,07,12.30
2013,04,01,10,08,12.40
2013,04,01,10,09,12.40
2013,04,01,10,10,12.50
2013,04,01,10,11,12.60
2013,04,01,10,12,12.70
2013,04,01,10,13,12.80
2013,04,01,10,14,12.90
2013,04,01,10,15,13.00
2013,04,01,10,16,13.10
2013,04,01,10,17,13.20
2013,04,01,10,18,13.20
2013,04,01,10,19,13.20
2013,04,01,10,20,13.00
2013,04,01,10,21,12.90
2013,04,01,10,22,12.80
2013,04,01,10,23,12.70
2013,04,01,10,24,12.60
2013,04,01,10,25,12.50
2013,04,01,10,26,12.40
2013,04,01,10,27,12.30
2013,04,01,10,28,12.20
2013,04,01,10,29,12.20
2013,04,01,10,30,12.30
2013,04,01,10,31,12.30
2013,04,01,10,32,12.40
2013,04,01,10,33,12.50
2013,04,01,10,34,12.50
2013,04,01,10,35,12.60
2013,04,01,10,36,12.60
2013,04,01,10,37,12.70
2013,04,01,10,38,12.70
2013,04,01,10,39,12.70
2013,04,01,10,40,12.80
2013,04,01,10,41,12.90
2013,04,01,10,42,13.00
2013,04,01,10,43,13.00
2013,04,01,10,44,13.00
2013,04,01,10,45,13.00
2013,04,01,10,46,13.00
2013,04,01,10,47,12.90
2013,04,01,10,48,12.80
2013,04,01,10,49,12.80
2013,04,01,10,50,12.80
2013,04,01,10,51,12.70
2013,04,01,10,52,12.70
2013,04,01,10,53,12.70
2013,04,01,10,54,12.60
2013,04,01,10,55,12.60
2013,04,01,10,56,12.60
2013,04,01,10,57,12.70
2013,04,01,10,58,12.70
2013,04,01,10,59,12.70
2013,04,01,11,00,12.70
2013,04,01,11,01,12.70
2013,04,01,11,02,12.80
2013,04,01,11,03,12.80
2013,04,01,11,04,12.80
2013,04,01,11,05,12.80
2013,04,01,11,06,12.80
2013,04,01,11,07,12.90
2013,04,01,11,08,13.00
2013,04,01,11,09,12.90
2013,04,01,11,10,13.00
2013,04,01,11,11,13.00
2013,04,01,11,12,13.00
2013,04,01,11,13,13.00
2013,04,01,11,14,13.10
2013,04,01,11,15,13.20
2013,04,01,11,16,13.20
2013,04,01,11,17,13.30
2013,04,01,11,18,13.30
2013,04,01,11,19,13.30
2013,04,01,11,20,13.20
2013,04,01,11,21,13.10
2013,04,01,11,22,13.10
2013,04,01,11,23,13.10
2013,04,01,11,24,13.10
2013,04,01,11,25,13.20
2013,04,01,11,26,13.20
2013,04,01,11,27,13.20
2013,04,01,11,28,13.30
2013,04,01,11,29,13.30
2013,04,01,11,30,13.30
2013,04,01,11,31,13.30
2013,04,01,11,32,13.30
2013,04,01,11,33,13.40
2013,04,01,11,34,13.40
2013,04,01,11,35,13.50
2013,04,01,11,36,13.50
2013,04,01,11,37,13.50
2013,04,01,11,38,13.50
2013,04,01,11,39,13.50
2013,04,01,11,40,13.50
2013,04,01,11,41,13.40
2013,04,01,11,42,13.40
2013,04,01,11,43,13.40
2013,04,01,11,44,13.40
2013,04,01,11,45,13.50
2013,04,01,11,46,13.50
2013,04,01,11,47,13.40
2013,04,01,11,48,13.30
2013,04,01,11,49,13.40
2013,04,01,11,50,13.40
2013,04,01,11,51,13.50
2013,04,01,11,52,13.60
2013,04,01,11,53,13.60
2013,04,01,11,54,13.70
2013,04,01,11,55,13.70
2013,04,01,11,56,13.70
2013,04,01,11,57,13.70
2013,04,01,11,58,13.60
2013,04,01,11,59,13.50
2013,04,01,12,00,13.40
2013,04,01,12,01,13.30
2013,04,01,12,02,13.30
2013,04,01,12,03,13.30
2013,04,01,12,04,13.30
2013,04,01,12,05,13.30
2013,04,01,12,06,13.40
2013,04,01,12,07,13.40
2013,04,01,12,08,13.50
2013,04,01,12,09,13.50
2013,04,01,12,10,13.60
2013,04,01,12,11,13.60
2013,04,01,12,12,13.70
2013,04,01,12,13,13.80
2013,04,01,12,14,13.90
2013,04,01,12,15,14.00
2013,04,01,12,16,14.10
2013,04,01,12,17,14.20
2013,04,01,12,18,14.30
2013,04,01,12,19,14.30
2013,04,01,12,20,14.30
2013,04,01,12,21,14.30
2013,04,01,12,22,14.20
2013,04,01,12,23,14.10
2013,04,01,12,24,13.90
2013,04,01,12,25,13.80
2013,04,01,12,26,13.70
2013,04,01,12,27,13.70
2013,04,01,12,28,13.70
2013,04,01,12,29,13.70
2013,04,01,12,30,13.80
2013,04,01,12,31,13.70
2013,04,01,12,32,13.70
2013,04,01,12,33,13.70
2013,04,01,12,34,13.50
2013,04,01,12,35,13.30
2013,04,01,12,36,13.20
2013,04,01,12,37,13.10
2013,04,01,12,38,13.00
2013,04,01,12,39,13.10
2013,04,01,12,40,13.10
2013,04,01,12,41,13.20
2013,04,01,12,42,13.30
2013,04,01,12,43,13.30
2013,04,01,12,44,13.30
2013,04,01,12,45,13.30
2013,04,01,12,46,13.30
2013,04,01,12,47,13.30
2013,04,01,12,48,13.30
2013,04,01,12,49,13.30
2013,04,01,12,50,13.20
2013,04,01,12,51,13.30
2013,04,01,12,52,13.30
2013,04,01,12,53,13.40
2013,04,01,12,54,13.50
2013,04,01,12,55,13.60
2013,04,01,12,56,13.70
2013,04,01,12,57,13.80
2013,04,01,12,58,14.00
2013,04,01,12,59,14.00
2013,04,01,13,00,14.10
2013,04,01,13,01,14.20
2013,04,01,13,02,14.20
2013,04,01,13,03,14.30
2013,04,01,13,04,14.30
2013,04,01,13,05,14.40
2013,04,01,13,06,14.40
2013,04,01,13,07,14.50
2013,04,01,13,08,14.60
2013,04,01,13,09,14.70
2013,04,01,13,10,14.70
2013,04,01,13,11,14.60
2013,04,01,13,12,14.50
2013,04,01,13,13,14.50
2013,04,01,13,14,14.40
2013,04,01,13,15,14.30
2013,04,01,13,16,14.30
2013,04,01,13,17,14.30
2013,04,01,13,18,14.20
2013,04,01,13,19,14.20
2013,04,01,13,20,14.20
2013,04,01,13,21,14.20
2013,04,01,13,22,14.30
2013,04,01,13,23,14.30
2013,04,01,13,24,14.30
2013,04,01,13,25,14.30
2013,04,01,13,26,14.40
2013,04,01,13,27,14.50
2013,04,01,13,28,14.60
2013,04,01,13,29,14.40
2013,04,01,13,30,14.30
2013,04,01,13,31,14.20
2013,04,01,13,32,14.10
2013,04,01,13,33,14.00
2013,04,01,13,34,13.90
2013,04,01,13,35,13.90
2013,04,01,13,36,14.00
2013,04,01,13,37,14.10
2013,04,01,13,38,14.20
2013,04,01,13,39,14.30
2013,04,01,13,40,14.20
2013,04,01,13,41,14.10
2013,04,01,13,42,14.10
2013,04,01,13,43,14.10
2013,04,01,13,44,14.20
2013,04,01,13,45,14.30
2013,04,01,13,46,14.40
2013,04,01,13,47,14.40
2013,04,01,13,48,14.30
2013,04,01,13,49,14.30
2013,04,01,13,50,14.30
2013,04,01,13,51,14.40
2013,04,01,13,52,14.40
2013,04,01,13,53,14.40
2013,04,01,13,54,14.50
2013,04,01,13,55,14.50
2013,04,01,13,56,14.40
2013,04,01,13,57,14.30
2013,04,01,13,58,14.10
2013,04,01,13,59,14.00
2013,04,01,14,00,13.90
2013,04,01,14,01,13.90
2013,04,01,14,02,13.90
2013,04,01,14,03,13.90
2013,04,01,14,04,13.80
2013,04,01,14,05,13.80
2013,04,01,14,06,13.80
2013,04,01,14,07,13.80
2013,04,01,14,08,13.90
2013,04,01,14,09,13.90
2013,04,01,14,10,13.90
2013,04,01,14,11,13.90
2013,04,01,14,12,14.00
2013,04,01,14,13,13.90
2013,04,01,14,14,13.90
2013,04,01,14,15,14.00
2013,04,01,14,16,14.00
2013,04,01,14,17,14.10
2013,04,01,14,18,14.10
2013,04,01,14,19,14.00
2013,04,01,14,20,13.90
2013,04,01,14,21,13.80
2013,04,01,14,22,13.80
2013,04,01,14,23,13.70
2013,04,01,14,24,13.70
2013,04,01,14,25,13.70
2013,04,01,14,26,13.70
2013,04,01,14,27,13.70
2013,04,01,14,28,13.60
2013,04,01,14,29,13.70
2013,04,01,14,30,13.80
2013,04,01,14,31,13.80
2013,04,01,14,32,13.80
2013,04,01,14,33,13.80
2013,04,01,14,34,13.80
2013,04,01,14,35,13.80
2013,04,01,14,36,13.70
2013,04,01,14,37,13.60
2013,04,01,14,38,13.40
2013,04,01,14,39,13.30
2013,04,01,14,40,13.30
2013,04,01,14,41,13.40
2013,04,01,14,42,13.40
2013,04,01,14,43,13.50
2013,04,01,14,44,13.50
2013,04,01,14,45,13.70
2013,04,01,14,46,13.70
2013,04,01,14,47,13.70
2013,04,01,14,48,13.70
2013,04,01,14,49,13.80
2013,04,01,14,50,13.80
2013,04,01,14,51,13.80
2013,04,01,14,52,13.90
2013,04,01,14,53,13.90
2013,04,01,14,54,13.90
2013,04,01,14,55,13.90
2013,04,01,14,56,13.80
2013,04,01,14,57,13.80
2013,04,01,14,58,13.80
2013,04,01,14,59,13.80
2013,04,01,15,00,13.80
2013,04,01,15,01,13.80
2013,04,01,15,02,13.70
2013,04,01,15,03,13.70
2013,04,01,15,04,13.70
2013,04,01,15,05,13.70
2013,04,01,15,06,13.70
2013,04,01,15,07,13.70
2013,04,01,15,08,13.60
2013,04,01,15,09,13.60
2013,04,01,15,10,13.60
2013,04,01,15,11,13.60
2013,04,01,15,12,13.70
2013,04,01,15,13,13.70
2013,04,01,15,14,13.70
2013,04,01,15,15,13.80
2013,04,01,15,16,13.90
2013,04,01,15,17,14.00
2013,04,01,15,18,14.10
2013,04,01,15,19,14.10
2013,04,01,15,20,14.20
2013,04,01,15,21,14.20
2013,04,01,15,22,14.30
2013,04,01,15,23,14.30
2013,04,01,15,24,14.40
2013,04,01,15,25,14.40
2013,04,01,15,26,14.40
2013,04,01,15,27,14.50
2013,04,01,15,28,14.50
2013,04,01,15,29,14.40
2013,04,01,15,30,14.30
2013,04,01,15,31,14.00
2013,04,01,15,32,13.80
2013,04,01,15,33,13.70
2013,04,01,15,34,13.70
2013,04,01,15,35,13.60
2013,04,01,15,36,13.50
2013,04,01,15,37,13.40
2013,04,01,15,38,13.30
2013,04,01,15,39,13.20
2013,04,01,15,40,13.10
2013,04,01,15,41,13.10
2013,04,01,15,42,13.00
2013,04,01,15,43,13.00
2013,04,01,15,44,13.00
2013,04,01,15,45,13.10
2013,04,01,15,46,13.20
2013,04,01,15,47,13.30
2013,04,01,15,48,13.40
2013,04,01,15,49,13.40
2013,04,01,15,50,13.40
2013,04,01,15,51,13.40
2013,04,01,15,52,13.40
2013,04,01,15,53,13.50
2013,04,01,15,54,13.60
2013,04,01,15,55,13.70
2013,04,01,15,56,13.90
2013,04,01,15,57,14.00
2013,04,01,15,58,14.00
2013,04,01,15,59,14.10
2013,04,01,16,00,14.10
2013,04,01,16,01,14.10
2013,04,01,16,02,14.10
2013,04,01,16,03,14.10
2013,04,01,16,04,14.10
2013,04,01,16,05,14.00
2013,04,01,16,06,14.00
2013,04,01,16,07,14.00
2013,04,01,16,08,13.90
2013,04,01,16,09,13.80
2013,04,01,16,10,13.80
2013,04,01,16,11,13.80
2013,04,01,16,12,13.70
2013,04,01,16,13,13.70
2013,04,01,16,14,13.60
2013,04,01,16,15,13.50
2013,04,01,16,16,13.50
2013,04,01,16,17,13.60
2013,04,01,16,18,13.60
2013,04,01,16,19,13.60
2013,04,01,16,20,13.60
2013,04,01,16,21,13.50
2013,04,01,16,22,13.60
2013,04,01,16,23,13.60
2013,04,01,16,24,13.70
2013,04,01,16,25,13.70
2013,04,01,16,26,13.80
2013,04,01,16,27,13.80
2013,04,01,16,28,13.80
2013,04,01,16,29,13.80
2013,04,01,16,30,13.70
2013,04,01,16,31,13.70
2013,04,01,16,32,13.70
2013,04,01,16,33,13.70
2013,04,01,16,34,13.80
2013,04,01,16,35,13.80
2013,04,01,16,36,13.80
2013,04,01,16,37,13.70
2013,04,01,16,38,13.60
2013,04,01,16,39,13.60
2013,04,01,16,40,13.50
2013,04,01,16,41,13.50
2013,04,01,16,42,13.50
2013,04,01,16,43,13.40
2013,04,01,16,44,13.50
2013,04,01,16,45,13.50
2013,04,01,16,46,13.60
2013,04,01,16,47,13.60
2013,04,01,16,48,13.60
2013,04,01,16,49,13.60
2013,04,01,16,50,13.50
2013,04,01,16,51,13.40
2013,04,01,16,52,13.40
2013,04,01,16,53,13.40
2013,04,01,16,54,13.40
2013,04,01,16,55,13.40
2013,04,01,16,56,13.50
2013,04,01,16,57,13.60
2013,04,01,16,58,13.70
2013,04,01,16,59,13.70
2013,04,01,17,00,13.60
2013,04,01,17,01,13.60
2013,04,01,17,02,13.60
2013,04,01,17,03,13.70
2013,04,01,17,04,13.60
2013,04,01,17,05,13.60
2013,04,01,17,06,13.70
2013,04,01,17,07,13.80
2013,04,01,17,08,13.80
2013,04,01,17,09,13.90
2013,04,01,17,10,14.00
2013,04,01,17,11,14.00
2013,04,01,17,12,14.10
2013,04,01,17,13,14.10
2013,04,01,17,14,14.10
2013,04,01,17,15,14.00
2013,04,01,17,16,14.00
2013,04,01,17,17,13.90
2013,04,01,17,18,13.90
2013,04,01,17,19,13.90
2013,04,01,17,20,13.90
2013,04,01,17,21,13.90
2013,04,01,17,22,14.00
2013,04,01,17,23,14.00
2013,04,01,17,24,14.00
2013,04,01,17,25,14.10
2013,04,01,17,26,14.10
2013,04,01,17,27,14.00
2013,04,01,17,28,13.90
2013,04,01,17,29,13.90
2013,04,01,17,30,13.90
2013,04,01,17,31,13.90
2013,04,01,17,32,13.90
2013,04,01,17,33,14.00
2013,04,01,17,34,14.10